Regional Weather Roundup
Issued by NWS

Home | Current Version | Previous Version | Graphics & Text | Print | Product List | Glossary On
Versions: 1 2 3 4 5 6 7 8 9 10 11 12 13 14 15 16 17 18 19 20 21 22 23 24 25 26 27 28 29 30 31 32 33 34 35 36 37 38 39 40 41 42 43 44 45 46 47 48 49 50
000
ASUS43 KLOT 240422
RWRIL

ILLINOIS REGIONAL WEATHER ROUNDUP
NATIONAL WEATHER SERVICE CHICAGO/ROMEOVILLE IL
1100 PM CDT SAT MAY 23 2015

NOTE: "FAIR" INDICATES FEW OR NO CLOUDS BELOW 12,000 FEET WITH NO
SIGNIFICANT WEATHER AND/OR OBSTRUCTIONS TO VISIBILITY.

* THESE STATIONS ARE NOT UNDER NWS QUALITY CONTROL. THEY ALSO MAY NOT
  REPORT WEATHER SUCH AS PRECIPITATION OR FOG.

ILZ001-002-007-009-015-016-024-240500-
NORTHWEST ILLINOIS

CITY           SKY/WX    TMP DP  RH WIND       PRES   REMARKS
MOLINE         CLOUDY    61  49  64 E3        30.14F
STERLING*      MOCLDY    66  48  52 SE5       30.17F
SAVANNA*       MOCLDY    62  52  69 CALM      30.17S
$$

ILZ003-004-008-010-011-017-018-240500-
NORTH CENTRAL ILLINOIS

CITY           SKY/WX    TMP DP  RH WIND       PRES   REMARKS
ROCKFORD       MOCLDY    64  49  57 CALM      30.21R
FREEPORT*      MOCLDY    60  50  69 S5        30.19F
ROCHELLE*      PTCLDY    61  50  66 SE3       30.20S
DE KALB*       PTCLDY    62  47  58 S5        30.21S
PERU*          MOCLDY    69  47  46 S7        30.19F
$$

ILZ005-006-012>014-019>023-240500-
NORTHEAST ILLINOIS

CITY           SKY/WX    TMP DP  RH WIND       PRES   REMARKS
CHICAGO-OHARE  PTCLDY    63  44  50 S5        30.20R
CHICAGO-MIDWAY PTCLDY    70  45  40 S6        30.21R
AURORA         PTCLDY    61  47  59 SE3       30.20R
LANSING*       PTCLDY    63  43  48 S7        30.21F
JOLIET*        PTCLDY    69  47  44 S5        30.20S
WAUKEGAN       CLEAR     54  40  59 CALM      30.20S
DUPAGE AIRPORT PTCLDY    62  48  60 SE3       30.20R
KANKAKEE*      MOCLDY    66  47  49 S6        30.22S
WHEELING       CLEAR     61  42  49 CALM      30.22R
MORRIS*        MOCLDY    65  47  50 S7        30.18F
ROMEOVILLE*    PTCLDY    66  44  43 S8        30.21R
NORTHERLY ISL    N/A     58  47  66 CALM        N/A
$$

LMZ740>746-240500-
SOUTHERN LAKE MICHIGAN

STATION/POSITION SKY/WX   TEMP    WIND        PRES    VSBY  WAVE
                          AIR SEA DIR/SP/G                  HT/PER
                          (F)     (DEG/KT/KT) (MB)    (MI)  (FT/S)
SOUTHERN BUOY              48 38  130/ 10/ 10 1023.5R         0
HARRISON CRIB              60     170/  5/  6   N/A
BURNHAM HARBOR             58      CALM  /  2   N/A
CALUMET HARBOR             65     180/  4/  4   N/A
BURNS HARBOR               70     190/  8/ 11 1023.4R
MICHIGAN CITY              71     150/ 10/ 14   N/A
MICHIGAN CITY 6N           61 53  190/  4/  6   N/A           0
ST. JOSEPH                 64 58  150/  6/  8   N/A           0
$$

ILZ025>027-034>036-040-047-049-050-058-095>099-240500-
WEST-CENTRAL ILLINOIS

CITY           SKY/WX    TMP DP  RH WIND       PRES   REMARKS
QUINCY         CLOUDY    68  50  52 SE7       30.12F
GALESBURG*     CLOUDY    68  49  51 SE5       30.16F
MACOMB*        CLOUDY    69  50  49 SE7       30.17F
JACKSONVILLE*  CLOUDY    70  52  52 SE6       30.16S
PITTSFIELD*    CLOUDY    70  52  52 SE7       30.15F
$$

ILZ028>032-037-038-041>044-048-051>054-059>061-240500-
CENTRAL ILLINOIS

CITY           SKY/WX    TMP DP  RH WIND       PRES   REMARKS
PONTIAC        MOCLDY    69  50  50 S5        30.21S
BLOOMINGTON    CLOUDY    66  52  60 S8        30.21F
DECATUR        CLOUDY    68  50  52 SE8       30.20S
PEORIA         CLOUDY    71  50  47 SE6       30.18S
LACON*         CLOUDY    68  49  50 SE6       30.17F
LINCOLN*       CLOUDY    70  51  52 SE3       30.17S
SPRINGFIELD    CLOUDY    72  51  47 SE8       30.17F
TAYLORVILLE    CLOUDY    68  50  52 SE7       30.18F
$$

ILZ033-039-045-046-055>057-062-063-240500-
EAST-CENTRAL ILLINOIS

CITY           SKY/WX    TMP DP  RH WIND       PRES   REMARKS
CHAMPAIGN      MOCLDY    63  51  65 E7        30.21F
DANVILLE*      MOCLDY    65  49  56 SE3       30.20F
RANTOUL*       MOCLDY    69  50  51 SE5       30.21F
MATTOON        MOCLDY    64  51  62 SE5       30.21R
PARIS*         MOCLDY    66  49  52 E3        30.24S
$$

ILZ079-100>102-240500-
SOUTHWEST ILLINOIS

CITY           SKY/WX    TMP DP  RH WIND       PRES   REMARKS
ALTON          MOCLDY    66  55  69 E3        30.16F
BELLEVILLE     MOCLDY    66  57  72 E6        30.15F
CAHOKIA*       MOCLDY    65  54  67 SE5       30.14F
SPARTA*        MOCLDY    66  56  68 SE5       30.18F
$$

ILZ064>066-069>071-074>076-080>082-084>086-088>090-092>094-240500-
SOUTH-CENTRAL ILLINOIS

CITY           SKY/WX    TMP DP  RH WIND       PRES   REMARKS
CARBONDALE     MOCLDY    64  54  69 E3        30.17F
CAIRO*         PTCLDY    67  56  67 E3        30.17F
EFFINGHAM*     CLOUDY    64  51  63 CALM      30.22S
MARION         MOCLDY    64  55  72 E3        30.18F
MT. VERNON     CLOUDY    64  52  63 E3        30.19F
CENTRALIA*     CLOUDY    67  50  55 SE5       30.18F
SALEM*         CLOUDY    69  49  50 CALM      30.19F
METROPOLIS*    PTCLDY    63  59  85 CALM      30.17F
$$

ILZ067-068-072-073-078-083-087-091-240500-
SOUTHEAST ILLINOIS

CITY           SKY/WX    TMP DP  RH WIND       PRES   REMARKS
LAWRENCEVILLE  MOCLDY    64  53  67 SE5       30.22F
FLORA*         MOCLDY    66  51  57 E3        30.21S
FAIRFIELD*     CLOUDY    67  52  59 CALM      30.19S
HARRISBURG*    MOCLDY    66  56  71 SE3       30.20S
ROBINSON*      MOCLDY    62  55  78 CALM      30.23S
CARMI*         MOCLDY    63  52  67 SE5       30.20S
$$

ABBREVIATIONS USED IN REMARKS
   TC - TEMPERATURE IN CELSIUS
  WCI - WIND CHILL INDEX
   HX - HEAT INDEX
  VSB - VISIBILITY
$$




USA.gov is the U.S. government's official web portal to all federal, state and local government web resources and services.